Location: Wanzleben
(52.0609°N, 11.4408°E)
Time: 18:29:10
(UTC+00:00)

Cosmos 1464 Rocket - Pass Details

Date: 18 September 2020
Orbit: 953 x 1000 km, 82.9° (Epoch: 21 October)

Event Time Altitude Azimuth Distance (km) Brightness Sun altitude
Rises 17:58:57 0° 160° (SSE) 3,618 6.7 -6.6°
Reaches altitude 10° 18:01:35 10° 152° (SSE) 2,678 5.9 -7.0°
Maximum altitude 18:07:08 38° 87° (E) 1,436 4.5 -7.8°
Drops below altitude 10° 18:12:45 10° 22° (NNE) 2,711 6.3 -8.7°
Sets 18:15:25 0° 15° (NNE) 3,668 7.0 -9.1°
